TROMSO/LANGNES current weather conditions

sailwx.info

Wind from 200 at 17 knots

Air temperature 2.0° C
Visibility: greater than 5.4 NM
Dewpoint -0.0° C
Present weather: Light rain showers.

Last reported at 2019-Dec-05 20:50 UTC.
Time now 2019-Dec-05 22:03 UTC

Location: N 69°41' E 018°55'.
View on Google Maps.

See reports from other nearby stations

  
Tides and Currents Weather Stations Pressure Air Temp Water Temp Dewpoint Dewpoint Depression Visibility Wind Speed Wind Dir Waves Ship Positions
date/time (UTC)wind fromknots sea level pressurealtimeterstation pressurevisibilityair tempwater tempwave heightnotes
2019-Dec-05 20:50 200 17 5.4 2.0 Light rain showers.
2019-Dec-05 20:20 210 17 5.4 3.0 Light rain showers.
2019-Dec-05 19:50 200 5 5.4 3.0
2019-Dec-05 19:20 5.4 2.0
2019-Dec-05 18:50 5.4 1.0
2019-Dec-05 18:20 5.4 1.0
2019-Dec-05 17:50 040 4 5.4 2.0
2019-Dec-05 17:20 170 2 5.4 2.0
2019-Dec-05 16:50 5.4 2.0
2019-Dec-05 16:20 5.4 2.0
2019-Dec-05 15:50 250 2 5.4 4.0
2019-Dec-05 15:20 5.4 3.0
2019-Dec-05 14:50 200 2 5.4 3.0
2019-Dec-05 14:20 170 6 5.4 4.0
2019-Dec-05 13:50 190 12 5.4 4.0
2019-Dec-05 13:20 180 9 5.4 4.0
2019-Dec-05 12:50 180 8 5.4 4.0
2019-Dec-05 12:20 190 8 5.4 4.0
2019-Dec-05 11:50 180 9 5.4 3.0
2019-Dec-05 11:20 190 9 5.4 4.0
2019-Dec-05 10:50 200 14 5.4 4.0
2019-Dec-05 10:20 190 13 5.4 4.0
2019-Dec-05 09:50 190 13 5.4 3.0
2019-Dec-05 09:20 180 13 5.4 3.0
2019-Dec-05 08:50 200 11 5.4 3.0 Light rain.
2019-Dec-05 08:20 210 13 5.4 3.0 Light rain showers.
2019-Dec-05 07:50 210 15 5.4 3.0 Light drizzle.
2019-Dec-05 07:20 210 20 5.4 3.0
2019-Dec-05 06:50 230 19 5.4 4.0 Light rain.
2019-Dec-05 06:20 240 19 3.2 4.0 Light rain.
2019-Dec-05 05:50 230 24 5.4 4.0
2019-Dec-05 05:20 210 25 5.4 4.0 Rain showers.
2019-Dec-05 04:51 230 22 4.9 5.0 Rain showers.
2019-Dec-05 04:50 220 21 5.4 5.0
2019-Dec-05 04:20 220 19 5.4 5.0
2019-Dec-05 03:50 230 24 5.4 5.0 Drizzle.
2019-Dec-05 02:50 220 19 5.4 5.0 Drizzle.
2019-Dec-05 02:20 210 25 5.4 6.0 Light rain showers.
2019-Dec-05 01:50 190 13 5.4 6.0 Light drizzle.
2019-Dec-05 01:20 190 12 5.4 6.0 Precipitation.
2019-Dec-05 00:50 200 9 5.4 6.0
2019-Dec-05 00:20 200 7 5.4 5.0
2019-Dec-04 23:50 180 9 5.4 5.0
2019-Dec-04 23:20 190 8 5.4 5.0
2019-Dec-04 22:50 230 5 5.4 5.0
2019-Dec-04 22:20 230 8 5.4 5.0
2019-Dec-04 21:50 220 14 5.4 6.0
2019-Dec-04 21:20 220 15 5.4 5.0
2019-Dec-04 20:50 220 17 5.4 6.0
2019-Dec-04 20:20 210 15 5.4 6.0
2019-Dec-04 19:50 200 14 5.4 6.0
2019-Dec-04 19:20 200 12 5.4 5.0
2019-Dec-04 18:50 210 13 5.4 5.0
2019-Dec-04 18:20 200 18 5.4 6.0 Light drizzle.
2019-Dec-04 17:50 200 17 5.4 6.0 Light rain showers.
2019-Dec-04 17:20 200 18 5.4 6.0 Light drizzle.
2019-Dec-04 16:50 210 18 5.4 6.0 Light drizzle.
2019-Dec-04 16:20 210 17 5.4 6.0 Light rain showers.
2019-Dec-04 15:50 200 17 5.4 6.0 Light rain showers.
2019-Dec-04 15:20 210 18 5.4 6.0 Light rain showers.
2019-Dec-04 14:50 200 15 5.4 6.0 Light rain showers.
2019-Dec-04 14:20 200 17 5.4 6.0 Light rain showers.
2019-Dec-04 13:50 200 19 5.4 6.0
2019-Dec-04 13:20 200 17 5.4 5.0 Light rain.
2019-Dec-04 12:50 210 13 5.4 5.0 Drizzle.
2019-Dec-04 12:20 200 15 5.4 5.0 Rain showers.
2019-Dec-04 11:50 190 13 5.4 5.0 Rain showers.
2019-Dec-04 11:20 190 13 5.4 5.0 Light rain.
2019-Dec-04 10:50 190 12 5.4 5.0 Light rain.
2019-Dec-04 10:20 200 15 4.3 5.0 Light rain.
2019-Dec-04 09:50 200 13 3.2 5.0 Rain.
2019-Dec-04 09:20 200 15 5.4 5.0 Rain showers.
2019-Dec-04 08:50 200 17 3.2 4.0 Rain.
2019-Dec-04 08:20 210 17 2.0 5.0 Rain.
2019-Dec-04 07:50 210 17 1.7 4.0 Light drizzle snow.
2019-Dec-04 07:20 210 17 2.7 4.0 Rain.
2019-Dec-04 06:50 220 17 3.8 4.0 Light rain.
2019-Dec-04 06:20 190 14 5.4 5.0 Light rain showers.
2019-Dec-04 05:50 190 19 5.4 4.0 Light rain showers.
2019-Dec-04 05:20 190 19 gusting 28 5.4 4.0 Light rain showers.
2019-Dec-04 04:50 220 17 5.4 4.0 Light rain showers.
2019-Dec-04 03:50 200 15 5.4 4.0 Light rain showers.
2019-Dec-04 03:20 210 15 5.4 4.0 Light drizzle.
2019-Dec-04 02:20 200 17 5.4 4.0 Light rain.
2019-Dec-04 01:50 200 18 5.4 3.0 Light rain showers.
2019-Dec-04 01:20 200 17 5.4 3.0 Light rain.
2019-Dec-04 00:50 190 13 5.4 3.0 Light rain.
2019-Dec-03 23:50 190 12 5.4 2.0 Light rain showers.
2019-Dec-03 22:50 190 13 5.4 2.0 Light rain showers.
2019-Dec-03 22:20 190 13 5.4 2.0 Light rain showers.